Regional Weather Roundup
Issued by NWS Albany, NY

Home | Current Version | Previous Version | Graphics & Text | Print | Product List | Glossary Off
Versions: 1 2 3 4 5 6 7 8 9 10 11 12 13 14 15 16 17 18 19 20 21 22 23 24 25 26 27 28 29 30 31 32 33 34 35 36 37 38 39 40 41 42 43 44 45 46 47 48 49 50

000
ASUS41 KALY 272110
RWRALY

NEW YORK STATE HOURLY WEATHER ROUNDUP
NATIONAL WEATHER SERVICE ALBANY NY
500 PM EDT FRI MAY 27 2016

NOTE: "FAIR" INDICATES FEW OR NO CLOUDS BELOW 12,000 FEET WITH NO
SIGNIFICANT WEATHER AND/OR NO OBSTRUCTIONS TO VISIBILITY.

NYZ032-033-038>043-046>054-057>066-NYZ062>081-082-084-272200-
EAST


CITY           SKY/WX    TMP DP  RH WIND       PRES   REMARKS
ALBANY         CLOUDY    86  66  51 S16       29.97F
GLENS FALLS    MOSUNNY   87  64  46 S14       29.95S
POUGHKEEPSIE   LGT RAIN  77  71  82 SE5       30.01R
NEWBURGH       LGT RAIN  75  73  94 E9        30.03S
MONTGOMERY     CLOUDY    79  73  82 SW6       30.01F
WHITE PLAINS   MOSUNNY   81  64  56 S9G16     30.03F
ISLIP          MOSUNNY   73  62  68 S16       30.05F
NEW YORK CITY  PTSUNNY   79  68  69 S15G23    30.02F
CENTRAL PARK   MOSUNNY   79  62  56 S8G18     30.04F
$$

NYZ005>009-017-018-044>046-055-056-272200-
CENTRAL


CITY           SKY/WX    TMP DP  RH WIND       PRES   REMARKS
FULTON         PTSUNNY   78  71  79 NW5       29.98F
SYRACUSE       CLOUDY    78  67  68 SW13      29.99R
ROME           CLOUDY    82  67  60 NW8       29.98S
ELMIRA         LGT RAIN  86  62  44 NE6       29.98F
BINGHAMTON     MOSUNNY   81  61  50 W8        30.02F
MONTICELLO     SUNNY     82  64  54 S9        30.06F
$$

NYZ026>034-041>043-087-272200-
NORTH


CITY           SKY/WX    TMP DP  RH WIND       PRES   REMARKS
WATERTOWN      SUNNY     78  66  66 W9        29.97F
FORT DRUM      NOT AVBL
MASSENA        SUNNY     87  64  46 SW18G26   29.90F
SARANAC LAKE   MOSUNNY   84  55  36 W8G23     29.97F
PLATTSBURGH    MOSUNNY   93  58  30 VRB5      29.87F HX  92
$$

NYZ001>004-010>016-019>021-085-272200-
WEST


CITY           SKY/WX    TMP DP  RH WIND       PRES   REMARKS
NIAGARA FALLS  MOSUNNY   85  59  41 SW14      29.98F
BUFFALO        MOSUNNY   80  63  55 SW9       30.00F
DUNKIRK        SUNNY     77  64  64 SW9       30.01F
JAMESTOWN      SUNNY     81  61  50 W6        30.05S
WELLSVILLE     CLOUDY    82  61  48 SW6       30.07F
ROCHESTER      PTSUNNY   88  60  38 NW15      29.98F
PENN YAN       CLOUDY    83  65  54 VRB6      30.00S
$$

             KEY
       WCI = WIND CHILL INDEX
       VSB = VISIBILITY
       HX  = HEAT INDEX
$$



USA.gov is the U.S. government's official web portal to all federal, state and local government web resources and services.